| time (UTC) | temp F | wind direction | speed MPH | gust MPH | rain 1hr in | rain 24hr in | rain mn in | humidity % | barometer mb |
| 20260504201804 | 61 | 1.0 | 0.0 | 0.00 | 0.00 | 0.00 | 45 | 1016.0 | |
| 20260504200305 | 61 | 1.0 | 0.0 | 0.00 | 0.00 | 0.00 | 45 | 1016.0 | |
| 20260504194805 | 59 | 290 | 2.0 | 0.0 | 0.00 | 0.00 | 0.00 | 51 | 1016.0 |
| 20260504193305 | 59 | 290 | 2.0 | 0.0 | 0.00 | 0.00 | 0.00 | 51 | 1016.0 |
| 20260504191805 | 61 | 280 | 3.0 | 0.0 | 0.00 | 0.00 | 0.00 | 45 | 1016.0 |
| 20260504190305 | 61 | 280 | 3.0 | 0.0 | 0.00 | 0.00 | 0.00 | 45 | 1016.0 |
| 20260504184805 | 64 | 300 | 3.0 | 0.0 | 0.00 | 0.00 | 0.00 | 40 | 1016.0 |
| 20260504183315 | 64 | 300 | 3.0 | 0.0 | 0.00 | 0.00 | 0.00 | 40 | 1016.0 |
| 20260504181805 | 66 | 280 | 6.0 | 0.0 | 0.00 | 0.00 | 0.00 | 35 | 1016.0 |
| 20260504180305 | 66 | 280 | 6.0 | 0.0 | 0.00 | 0.00 | 0.00 | 35 | 1016.0 |
| 20260504174805 | 70 | 280 | 5.0 | 0.0 | 0.00 | 0.00 | 0.00 | 31 | 1016.0 |
| 20260504173305 | 70 | 280 | 5.0 | 0.0 | 0.00 | 0.00 | 0.00 | 31 | 1016.0 |
| 20260504171805 | 73 | 290 | 5.0 | 0.0 | 0.00 | 0.00 | 0.00 | 27 | 1016.0 |
| 20260504170305 | 73 | 290 | 5.0 | 0.0 | 0.00 | 0.00 | 0.00 | 27 | 1016.0 |
| 20260504160306 | 75 | 270 | 5.0 | 0.0 | 0.00 | 0.00 | 0.00 | 24 | 1016.0 |
| 20260504150305 | 77 | 280 | 6.0 | 0.0 | 0.00 | 0.00 | 0.00 | 24 | 1016.0 |
| 20260504140306 | 75 | 3.0 | 0.0 | 0.00 | 0.00 | 0.00 | 24 | 1017.0 | |
| 20260504130305 | 77 | 5.0 | 0.0 | 0.00 | 0.00 | 0.00 | 24 | 1017.0 | |
| 20260504120304 | 75 | 250 | 7.0 | 0.0 | 0.00 | 0.00 | 0.00 | 27 | 1018.0 |
| 20260504110305 | 73 | 3.0 | 0.0 | 0.00 | 0.00 | 0.00 | 29 | 1019.0 | |
| 20260504100305 | 70 | 3.0 | 0.0 | 0.00 | 0.00 | 0.00 | 33 | 1019.0 | |
| 20260504081805 | 63 | 2.0 | 0.0 | 0.00 | 0.00 | 0.00 | 42 | 1020.0 | |
| 20260504080304 | 63 | 2.0 | 0.0 | 0.00 | 0.00 | 0.00 | 42 | 1020.0 | |
| 20260504070306 | 57 | 110 | 3.0 | 0.0 | 0.00 | 0.00 | 0.00 | 51 | 1020.0 |
| 20260504050315 | 45 | 100 | 7.0 | 0.0 | 0.00 | 0.00 | 0.00 | 76 | 1020.0 |
| 20260504044805 | 39 | 100 | 6.0 | 0.0 | 0.00 | 0.00 | 0.00 | 87 | 1020.0 |
| 20260504043305 | 39 | 100 | 6.0 | 0.0 | 0.00 | 0.00 | 0.00 | 87 | 1020.0 |
| 20260504041805 | 37 | 100 | 7.0 | 0.0 | 0.00 | 0.00 | 0.00 | 87 | 1020.0 |
| 20260504040305 | 37 | 100 | 7.0 | 0.0 | 0.00 | 0.00 | 0.00 | 87 | 1020.0 |
| 20260504034805 | 37 | 110 | 6.0 | 0.0 | 0.00 | 0.00 | 0.00 | 87 | 1020.0 |
| 20260504033305 | 37 | 110 | 6.0 | 0.0 | 0.00 | 0.00 | 0.00 | 87 | 1020.0 |
| 20260504031805 | 39 | 140 | 3.0 | 0.0 | 0.00 | 0.00 | 0.00 | 87 | 1019.0 |
| 20260504030420 | 39 | 140 | 3.0 | 0.0 | 0.00 | 0.00 | 0.00 | 87 | 1019.0 |
| 20260504024806 | 36 | 60 | 6.0 | 0.0 | 0.00 | 0.00 | 0.00 | 93 | 1019.0 |
| 20260504023305 | 36 | 60 | 6.0 | 0.0 | 0.00 | 0.00 | 0.00 | 93 | 1019.0 |
| 20260504021804 | 37 | 60 | 6.0 | 0.0 | 0.00 | 0.00 | 0.00 | 87 | 1020.0 |
| 20260504020305 | 37 | 60 | 6.0 | 0.0 | 0.00 | 0.00 | 0.00 | 87 | 1020.0 |
| 20260504014805 | 36 | 50 | 5.0 | 0.0 | 0.00 | 0.00 | 0.00 | 93 | 1019.0 |
| 20260504013310 | 36 | 50 | 5.0 | 0.0 | 0.00 | 0.00 | 0.00 | 93 | 1019.0 |
| 20260504011919 | 39 | 80 | 2.0 | 0.0 | 0.00 | 0.00 | 0.00 | 87 | 1019.0 |
| 20260504010305 | 39 | 80 | 2.0 | 0.0 | 0.00 | 0.00 | 0.00 | 87 | 1019.0 |
| 20260504004919 | 37 | 70 | 5.0 | 0.0 | 0.00 | 0.00 | 0.00 | 93 | 1019.0 |
| 20260504003305 | 37 | 70 | 5.0 | 0.0 | 0.00 | 0.00 | 0.00 | 93 | 1019.0 |
| 20260504001805 | 37 | 70 | 5.0 | 0.0 | 0.00 | 0.00 | 0.00 | 93 | 1020.0 |
| 20260504000305 | 37 | 70 | 5.0 | 0.0 | 0.00 | 0.00 | 0.00 | 93 | 1020.0 |
| 20260503234844 | 39 | 70 | 3.0 | 0.0 | 0.00 | 0.00 | 0.00 | 87 | 1019.0 |
| 20260503233305 | 39 | 70 | 3.0 | 0.0 | 0.00 | 0.00 | 0.00 | 87 | 1019.0 |
| 20260503231808 | 45 | 140 | 6.0 | 0.0 | 0.00 | 0.00 | 0.00 | 76 | 1019.0 |
| 20260503230317 | 45 | 140 | 6.0 | 0.0 | 0.00 | 0.00 | 0.00 | 76 | 1019.0 |
| 20260503224805 | 48 | 1.0 | 0.0 | 0.00 | 0.00 | 0.00 | 62 | 1019.0 | |
| 20260503223317 | 48 | 1.0 | 0.0 | 0.00 | 0.00 | 0.00 | 62 | 1019.0 | |
| 20260503221821 | 46 | 330 | 3.0 | 0.0 | 0.00 | 0.00 | 0.00 | 66 | 1019.0 |
| 20260503220347 | 46 | 330 | 3.0 | 0.0 | 0.00 | 0.00 | 0.00 | 66 | 1019.0 |
| 20260503214812 | 46 | 320 | 3.0 | 0.0 | 0.00 | 0.00 | 0.00 | 66 | 1019.0 |
| 20260503213305 | 46 | 320 | 3.0 | 0.0 | 0.00 | 0.00 | 0.00 | 66 | 1019.0 |
| 20260503211805 | 48 | 340 | 3.0 | 0.0 | 0.00 | 0.00 | 0.00 | 62 | 1019.0 |
| 20260503210305 | 48 | 340 | 3.0 | 0.0 | 0.00 | 0.00 | 0.00 | 62 | 1019.0 |
| 20260503204812 | 48 | 350 | 5.0 | 0.0 | 0.00 | 0.00 | 0.00 | 66 | 1019.0 |
| 20260503203419 | 48 | 350 | 5.0 | 0.0 | 0.00 | 0.00 | 0.00 | 66 | 1019.0 |